Tracking 35331 objects as of 14-Sep-2026
HD Live streaming from Space Station
objects crossing your sky now

BREEZE-M R/B

Track BREEZE-M R/B now!


NORAD ID: 28656
Int'l Code: 2004-008C
Launch date: March 15, 2004
Source: Commonwealth of Independent States (former USSR) (CIS)
Launch site: TYURATAM MISSILE AND SPACE COMPLEX (TTMTR)

Note: This is a ROCKET BODY
Your satellite tracking list
Your tracking list is empty




NASA's NSSDC Master Catalog

Two Line Element Set (TLE):
1 28656U 04008C   26256.64306705 -.00000208  00000-0  00000-0 0  9992
2 28656  12.4317 261.4849 6087103  53.6857 348.4791  1.97325493156001
Source of the keplerian elements: AFSPC